Bookmark and Share
Track history (hours):
 

Ursa Minor

Last reported at 2014-Apr-23 14:17 UTC. Time now 2014-Apr-24 19:53 UTC.
Position N 38°05' E 015°35'.

Length 205 m; draft 8.4 m.

Type: Cargo ship. MMSI: 247082300.

NotesDate/timePositionNaut miles runAvg speedWind from/ knotsBaromVisibWave heightAir tempDewpointWater temp
2014-Apr-23 14:17N 38°05' E 015°35'15912.5
2014-Apr-23 01:33N 40°27' E 014°05'1212.5
2014-Apr-23 00:33N 40°35' E 013°52'1312.5
2014-Apr-22 23:33N 40°43' E 013°40'1312.7
2014-Apr-22 22:33N 40°51' E 013°27'1312.7
2014-Apr-22 21:32N 40°60' E 013°13'19712.8
2014-Apr-22 06:08N 43°21' E 010°08'712.8
2014-Apr-22 05:33N 43°27' E 010°03'1312.8
2014-Apr-22 04:34N 43°37' E 009°52'1312.9
2014-Apr-22 03:34N 43°47' E 009°40'1312.9
2014-Apr-22 02:34N 43°56' E 009°27'1312.7
2014-Apr-22 01:33N 44°06' E 009°16'1312.8
2014-Apr-22 00:33N 44°15' E 009°04'1111.3
2014-Apr-21 23:34N 44°24' E 008°53'1 1.0
2014-Apr-21 22:33N 44°24' E 008°52'0 0.0
2014-Apr-21 21:30N 44°24' E 008°52'0 0.0
2014-Apr-21 20:24N 44°24' E 008°52'0 0.0
2014-Apr-21 19:33N 44°24' E 008°52'0 0.0
2014-Apr-21 18:24N 44°24' E 008°52'0 0.0
2014-Apr-21 17:30N 44°24' E 008°52'0 0.1
2014-Apr-21 16:30N 44°24' E 008°52'0 0.1
2014-Apr-21 15:33N 44°24' E 008°52'0 0.0
2014-Apr-21 14:33N 44°24' E 008°52'0 0.0
2014-Apr-21 13:30N 44°24' E 008°52'0 0.0
2014-Apr-21 12:30N 44°24' E 008°52'0 0.0
2014-Apr-21 11:30N 44°24' E 008°52'0 0.2
2014-Apr-21 10:33N 44°24' E 008°52'0 0.2
2014-Apr-21 09:33N 44°24' E 008°52'3 3.4
2014-Apr-21 08:33N 44°23' E 008°57'8 8.4
2014-Apr-21 07:33N 44°16' E 009°04'9 9.4
2014-Apr-21 06:33N 44°09' E 009°12'9 9.4
2014-Apr-21 05:33N 44°02' E 009°21'9 9.5
2014-Apr-21 04:33N 43°55' E 009°30'9 9.4
2014-Apr-21 03:33N 43°48' E 009°39'9 9.1
2014-Apr-21 02:33N 43°41' E 009°47'9 9.3
2014-Apr-21 01:33N 43°34' E 009°55'10 9.6
2014-Apr-21 00:33N 43°27' E 010°03'9 9.5
2014-Apr-20 23:33N 43°18' E 010°10'9 9.4
2014-Apr-20 22:33N 43°10' E 010°16'190 9.1
2014-Apr-20 01:33N 40°57' E 013°19'9 9.2
2014-Apr-20 00:33N 40°51' E 013°29'9 9.2
2014-Apr-19 23:33N 40°45' E 013°38'9 9.1
2014-Apr-19 22:33N 40°39' E 013°47'9 9.1
2014-Apr-19 21:33N 40°33' E 013°56'9 9.0
2014-Apr-19 20:33N 40°28' E 014°05'149 9.3
2014-Apr-19 04:33N 38°19' E 015°43'9 8.6
2014-Apr-19 03:30N 38°11' E 015°37'20 8.5
2014-Apr-19 01:08N 37°53' E 015°48'  

Dump ship's entire track history

sailing weather and tide predictions

Ursa Minor — ICGH — position and weather